www.pogodaiklimat.ru

Архив погоды в Кёльне (Германия)

Время
(UTC), дата
01 5.08
02 5.08
03 5.08
04 5.08
05 5.08
06 5.08
07 5.08
08 5.08
09 5.08
10 5.08
11 5.08
12 5.08
13 5.08
14 5.08
15 5.08
16 5.08
17 5.08
18 5.08
19 5.08
20 5.08
21 5.08
22 5.08
23 5.08
00 6.08
01 6.08
02 6.08
03 6.08
04 6.08
05 6.08
06 6.08
07 6.08
08 6.08
09 6.08
10 6.08
11 6.08
12 6.08
13 6.08
14 6.08
15 6.08
16 6.08
17 6.08
18 6.08
19 6.08
20 6.08
21 6.08
22 6.08
23 6.08
00 7.08
01 7.08
02 7.08
03 7.08
04 7.08
05 7.08
06 7.08
07 7.08
08 7.08
09 7.08
10 7.08
11 7.08
12 7.08
13 7.08
14 7.08
15 7.08
16 7.08
17 7.08
18 7.08
19 7.08
20 7.08
21 7.08
22 7.08
23 7.08
00 8.08
01 8.08
02 8.08
03 8.08
04 8.08
05 8.08
06 8.08
07 8.08
08 8.08
09 8.08
10 8.08
11 8.08
12 8.08
13 8.08
14 8.08
15 8.08
16 8.08
17 8.08
18 8.08
19 8.08
20 8.08
21 8.08
22 8.08
23 8.08
00 9.08
01 9.08
02 9.08
03 9.08
04 9.08
05 9.08
06 9.08
07 9.08
08 9.08
09 9.08
10 9.08
11 9.08
12 9.08
13 9.08
14 9.08
15 9.08
16 9.08
17 9.08
18 9.08
19 9.08
20 9.08
21 9.08
22 9.08
23 9.08
00 10.08
01 10.08
02 10.08
03 10.08
04 10.08
05 10.08
06 10.08
07 10.08
08 10.08
09 10.08
10 10.08
11 10.08
12 10.08
13 10.08
14 10.08
15 10.08
16 10.08
17 10.08
18 10.08
19 10.08
20 10.08
21 10.08
22 10.08
23 10.08
00 11.08
01 11.08
02 11.08
03 11.08
04 11.08
05 11.08
06 11.08
07 11.08
08 11.08
09 11.08
10 11.08
11 11.08
12 11.08
13 11.08
14 11.08
15 11.08
16 11.08
17 11.08
18 11.08
19 11.08
20 11.08
21 11.08
22 11.08
23 11.08
Ветер
(напр.,м/с)
Видим. Явления Облачность Т
(С)
Тd
(С)
f
(%)
Тe
(С)
Тes
(С)
Комфортность P
(гПа)
Po
(гПа)
Тmin
(С)
Tmax
(С)
R
(мм)
R24
(мм)
S
(см)
Ю 1 23 км 10/0 +19.8 +18.9 95 +24 +24 комфорт 1013.2 1001.6
СЗ 2 24 км 10/0 +19.3 +18.5 95 +22 +22 комфорт 1013.3 1001.7
СЗ 5 23 км слаб. дождь 10/10 900 м +19.0 +17.0 88 +20 +20 тепло 1014.9 1003.3 0.1
ЮЗ 3 14 км слаб. морось 9/9 210 м +18.4 +17.7 96 +19 +19 тепло 1015.2 1003.5
В 2 7000 м слаб. дождь 10/10 180 м +17.9 +17.5 98 +18 +18 тепло 1013.5 1001.8
З 2 5000 м в посл. час дождь 9/9 100 м +18.6 +17.8 95 +20 +20 тепло 1014.6 1003.0 +17.8 +26.0 2
СЗ 3-4
{4}
4100 м дымка 10/10 180 м +18.9 +17.9 94 +21 +21 комфорт 1014.9 1003.3
З 3 5000 м дымка 10/10 270 м +18.9 +17.5 92 +21 +21 комфорт 1015.6 1004.0
З 3 2100 м морось 9/9 270 м +18.4 +17.4 94 +19 +20 по сезону 1016.6 1004.9 0.0
СЗ 6 5000 м в посл. час морось 10/10 150 м +17.9 +16.9 94 +17 +17 прохладно 1016.7 1005.0
СЗ 5-7
{8}
5000 м дымка 9/9 150 м +17.1 +16.1 94 +16 +17 прохладно 1017.8 1006.1
СЗ 6 35 км в посл. час морось 10/10 360 м +18.1 +15.7 86 +18 +18 прохладно 1018.9 1007.2 0.0
С 4 45 км 9/9 570 м +21.1 +14.2 65 +24 +25 комфорт 1019.0 1007.4
СЗ 3 45 км 10/10 1080 м +21.4 +13.2 60 +24 +24 комфорт 1019.5 1007.9
С 5 55 км 9/9 1110 м +22.1 +13.0 56 +25 +25 комфорт 1019.4 1007.8
С 5-8
{10}
45 км 9/9 1500 м +21.7 +12.3 55 +24 +24 комфорт 1019.7 1008.1
СЗ 6 60 км 10/10 1200 м +21.3 +11.9 55 +23 +23 комфорт 1020.1 1008.5
С 5 65 км 9/9 1500 м +20.7 +10.1 51 +22 +22 комфорт 1020.7 1009.0 +16.9 +23.4
С 4 65 км 8/0 2000 м +18.9 +8.6 51 +19 +19 прохладно 1021.7 1009.9
С 2-3
{5}
60 км ясно +17.4 +9.0 58 +18 +18 прохладно 1022.6 1010.8
СЗ 2 65 км 9/0 2000 м +15.1 +9.7 70 +15 +15 прохладно 1023.6 1011.7
СЗ 4-5
{5}
60 км ясно +13.8 +9.5 75 +12 +12 очень
холодно
1024.3 1012.3
С 2-3
{5}
65 км 1/1 1500 м +12.5 +9.3 81 +12 +12 очень
холодно
1024.7 1012.7
С 2 60 км 9/9 1500 м +12.4 +9.9 85 +11 +11 прохладно 1025.6 1013.5
С 3-3
{4}
50 км 4/4 1500 м +11.3 +9.3 87 +9 +9 прохладно 1025.8 1013.7
СЗ 3-3
{3}
50 км ясно +10.3 +9.2 93 +8 +8 прохладно 1026.2 1014.0
С 1-2
{4}
40 км ясно +9.5 +8.6 94 +9 +9 прохладно 1026.6 1014.4
В 1-1
{2}
40 км ясно +9.4 +8.6 95 +9 +9 прохладно 1027.0 1014.8
В 1-2
{2}
28 км ясно +8.7 +8.1 96 +8 +8 прохладно 1027.4 1015.2
ЮВ 1 30 км ясно +11.0 +9.1 88 +11 +13 по сезону 1028.1 1015.9 +8.3 +20.7
В 1-2
{2}
35 км ясно +14.7 +9.7 72 +15 +20 тепло 1028.2 1016.2
С 1 50 км 6/0 +16.1 +8.8 62 +17 +23 тепло 1028.3 1016.4
С 3 60 км 9/9 1140 м +17.3 +8.6 57 +17 +18 по сезону 1028.1 1016.2
СВ 3 >70 км 8/8 1300 м +18.5 +7.9 50 +19 +21 тепло 1028.1 1016.3
С 3 >70 км 9/9 1500 м +20.5 +7.0 42 +22 +23 комфорт 1027.9 1016.1
С 4 >70 км 6/6 1500 м +19.7 +6.3 42 +20 +24 по сезону 1027.6 1015.8
С 4-6
{9}
55 км 1/1 1500 м +21.1 +4.3 33 +21 +29 комфорт 1027.1 1015.4
С 2-5
{8}
40 км 1/1 1500 м +22.4 +5.2 33 +23 +32 комфорт 1026.8 1015.1
С 5 55 км 3/0 2000 м +21.4 +5.7 36 +22 +25 комфорт 1026.5 1014.8
СВ 5-9
{10}
60 км ясно +21.8 +4.8 33 +22 +25 комфорт 1026.1 1014.4
С 4-6
{8}
65 км ясно +21.9 +4.1 31 +22 +23 комфорт 1025.8 1014.1
С 3 >70 км ясно +21.3 +4.9 34 +22 +22 комфорт 1025.8 1014.1 +11.1 +23.2
С 3-4
{7}
>70 км ясно +18.9 +5.8 42 +19 +19 по сезону 1026.0 1014.2
С 3-3
{4}
60 км ясно +15.7 +6.7 55 +15 +15 холодно 1026.4 1014.5
В 1-2
{7}
>70 км ясно +14.6 +6.8 59 +15 +15 по сезону 1026.7 1014.7
СВ 1-2
{2}
>70 км ясно +14.1 +6.9 62 +15 +15 по сезону 1026.7 1014.7
С 1-2
{3}
>70 км 1/0 +10.6 +6.7 77 +10 +10 холодно 1026.8 1014.6
ЮВ 2 >70 км 10/0 +8.9 +5.8 81 +7 +7 прохладно 1026.6 1014.4
ЮВ 2-3
{3}
60 км 10/0 +9.5 +6.1 79 +8 +8 прохладно 1026.3 1014.1
В 2-3
{3}
60 км 10/0 +9.7 +6.4 80 +8 +8 по сезону 1026.0 1013.8
ЮВ 1 55 км 9/0 +8.1 +6.1 87 +7 +7 прохладно 1026.1 1013.8
ЮВ 1-2
{2}
45 км 10/0 +6.8 +5.4 91 +6 +6 прохладно 1026.0 1013.7
В 2-3
{3}
50 км ясно +7.3 +6.0 91 +5 +5 прохладно 1026.1 1013.8
ЮВ 1 45 км 4/0 +10.2 +6.7 79 +10 +12 по сезону 1026.3 1014.1 +6.7 +21.3
ЮВ 1-2
{2}
55 км 10/0 +14.1 +6.9 62 +15 +17 тепло 1026.3 1014.3
ЮЗ 1-2
{2}
65 км 10/0 +17.0 +6.9 51 +18 +22 тепло 1025.9 1014.0
С 1 65 км 9/0 +20.1 +7.4 44 +22 +29 комфорт 1025.4 1013.6
СЗ 3-4
{4}
55 км ясно +22.2 +6.5 36 +23 +34 комфорт 1024.8 1013.1
З 2-4
{6}
60 км ясно +23.2 +5.1 31 +23 +38 комфорт 1024.1 1012.5
СЗ 2-4
{7}
>70 км ясно +25.0 +5.8 29 +25 +39 комфорт 1023.3 1011.8
СВ 2-5
{6}
60 км 1/0 +25.5 +6.3 29 +25 +38 комфорт 1022.9 1011.4
СЗ 3-7
{8}
55 км ясно +26.3 +6.2 28 +26 +35 жарко 1022.3 1010.8
С 4-7
{11}
>70 км ясно +25.7 +5.0 26 +25 +30 комфорт 1021.9 1010.4
С 3-7
{9}
50 км ясно +26.2 +5.1 26 +25 +29 комфорт 1021.6 1010.1
С 3-6
{7}
60 км ясно +25.8 +6.1 28 +25 +27 комфорт 1021.4 1009.9
С 5-7
{11}
65 км ясно +24.5 +6.6 32 +25 +25 комфорт 1021.5 1010.0 +10.3 +26.8
С 4-5
{7}
>70 км ясно +21.1 +6.2 38 +22 +22 комфорт 1022.1 1010.4
С 3-3
{5}
>70 км 5/0 +19.5 +7.0 44 +20 +20 тепло 1022.9 1011.1
С 3-4
{7}
>70 км 4/0 +16.4 +7.9 57 +16 +16 тепло 1023.3 1011.4
СЗ 2-3
{4}
>70 км ясно +15.0 +8.0 63 +15 +15 по сезону 1023.5 1011.6
С 1-2
{3}
>70 км ясно +13.8 +8.0 68 +14 +14 по сезону 1023.6 1011.6
С 2-2
{7}
60 км ясно +12.7 +8.3 75 +12 +12 тепло 1023.8 1011.8
С 1-1
{2}
65 км ясно +12.2 +8.2 77 +12 +12 тепло 1023.9 1011.8
В 1-2
{2}
55 км ясно +11.1 +8.2 82 +11 +11 тепло 1023.8 1011.7
В 2-2
{2}
60 км ясно +10.1 +8.0 87 +9 +9 по сезону 1024.0 1011.9
Ю 1-1
{3}
55 км 5/0 +9.6 +8.0 90 +9 +9 по сезону 1024.3 1012.1
В 2-3
{3}
55 км 1/0 +10.1 +8.2 88 +9 +9 тепло 1024.6 1012.4
ЮВ 1-2
{3}
50 км 9/0 +12.9 +9.4 79 +13 +14 тепло 1024.8 1012.8 +8.7 +24.5
З 1-1
{2}
35 км 10/0 +16.6 +9.2 62 +18 +20 тепло 1025.0 1013.1
З 1-2
{3}
55 км 9/0 +19.5 +9.0 51 +22 +26 комфорт 1025.3 1013.5
З 2-3
{3}
45 км 10/0 +22.3 +9.2 43 +24 +29 комфорт 1025.1 1013.4
СЗ 2-5
{5}
50 км 5/0 +24.5 +9.3 38 +25 +35 комфорт 1024.7 1013.1
СЗ 3-6
{6}
45 км ясно +25.9 +8.4 33 +26 +38 жарко 1024.3 1012.8
С 4-16
{16}
60 км 4/0 +26.6 +7.3 29 +26 +34 жарко 1023.9 1012.4
СЗ 3-6
{7}
65 км ясно +27.2 +7.2 28 +27 +38 жарко 1023.6 1012.1
С 6-10
{10}
65 км ясно +27.5 +9.0 31 +28 +32 жарко 1023.3 1011.9
СЗ 6-9
{11}
65 км ясно +27.4 +8.7 31 +27 +30 жарко 1023.1 1011.7
С 4-7
{9}
65 км ясно +27.1 +8.4 31 +27 +30 жарко 1023.2 1011.7
С 4-6
{9}
60 км ясно +26.8 +8.7 32 +27 +28 жарко 1023.1 1011.6
С 6-7
{11}
>70 км ясно +25.4 +9.4 36 +26 +26 жарко 1023.5 1012.0 +13.0 +28.5
С 5-6
{8}
60 км ясно +22.9 +9.7 43 +25 +25 комфорт 1024.0 1012.4
С 4-5
{6}
55 км ясно +21.0 +10.3 50 +23 +23 комфорт 1024.9 1013.2
С 3-5
{8}
55 км ясно +18.3 +10.6 61 +19 +19 тепло 1025.4 1013.6
С 3-4
{5}
55 км ясно +17.5 +10.7 64 +18 +18 тепло 1025.4 1013.6
СЗ 3-3
{4}
50 км ясно +15.8 +10.6 71 +15 +15 тепло 1025.9 1014.0
штиль 0-1
{8}
50 км ясно +15.2 +10.7 74 +15 +15 тепло 1025.8 1013.9
С 2-3
{3}
45 км ясно +14.2 +10.4 78 +14 +14 тепло 1025.7 1013.7
С 3-5
{5}
55 км ясно +14.9 +10.6 75 +14 +14 тепло 1025.8 1013.8
С 3-3
{5}
50 км ясно +14.5 +10.6 77 +14 +14 тепло 1025.8 1013.8
С 2-3
{4}
55 км ясно +13.1 +10.3 83 +12 +12 тепло 1026.0 1014.0
В 1-2
{3}
40 км ясно +11.8 +10.1 89 +12 +12 тепло 1026.5 1014.4
ЮВ 1-1
{5}
45 км ясно +14.7 +11.2 80 +15 +17 тепло 1026.6 1014.6 +11.8 +25.4
Ю 1-1
{2}
45 км ясно +18.4 +10.8 61 +20 +25 тепло 1026.7 1014.9
ЮВ 1-2
{3}
50 км ясно +21.0 +10.8 52 +24 +33 комфорт 1026.5 1014.8
СЗ 2-3
{3}
45 км ясно +23.5 +11.2 46 +25 +35 комфорт 1026.4 1014.8
СЗ 2-6
{6}
40 км ясно +25.8 +10.7 39 +27 +40 жарко 1026.2 1014.7
СЗ 3-6
{6}
60 км ясно +27.9 +9.9 32 +28 +40 жарко 1025.9 1014.4
В 3-6
{7}
60 км ясно +28.5 +8.4 28 +28 +40 жарко 1025.6 1014.2
СЗ 4-7
{7}
40 км ясно +29.0 +9.8 30 +29 +38 жарко 1025.1 1013.7
СВ 4-7
{9}
40 км ясно +28.9 +9.9 31 +29 +36 жарко 1024.7 1013.3
В 3-6
{9}
50 км ясно +29.0 +9.7 30 +29 +35 жарко 1024.6 1013.2
С 4-7
{8}
65 км ясно +29.7 +10.9 31 +30 +33 жарко 1024.2 1012.8
С 6-8
{9}
60 км ясно +28.3 +10.3 33 +29 +29 жарко 1024.2 1012.8
С 7-9
{9}
45 км ясно +27.2 +10.7 36 +28 +28 жарко 1024.4 1012.9 +14.8 +30.3
С 5-8
{9}
65 км ясно +25.1 +10.8 41 +26 +26 жарко 1024.7 1013.2
С 3-5
{6}
50 км ясно +23.4 +10.9 45 +26 +26 жарко 1025.3 1013.7
СВ 4-7
{9}
50 км ясно +23.1 +11.1 47 +25 +25 комфорт 1025.5 1013.9
СВ 4-6
{6}
55 км ясно +22.3 +11.0 49 +24 +24 комфорт 1025.4 1013.7
В 2-3
{6}
60 км ясно +21.1 +10.9 52 +23 +23 комфорт 1025.6 1013.9
Ю 1-1
{9}
60 км ясно +18.9 +10.7 59 +21 +21 комфорт 1025.9 1014.1
Ю 1-1
{2}
45 км ясно +16.2 +10.8 70 +17 +17 тепло 1025.8 1013.9
штиль 0-1
{1}
45 км ясно +15.7 +10.8 73 +16 +16 тепло 1025.7 1013.8
В 1-3
{3}
45 км ясно +15.6 +10.7 73 +16 +16 по сезону 1025.9 1014.0
В 2-2
{3}
50 км 6/0 +14.6 +10.5 76 +14 +14 по сезону 1025.7 1013.7
ЮВ 1-2
{3}
40 км 4/0 +12.5 +10.0 85 +12 +13 по сезону 1025.9 1013.8
ЮВ 2-2
{3}
20 км 3/0 +16.3 +11.5 73 +16 +18 по сезону 1026.0 1014.1 +12.2 +27.2
В 1-1
{2}
45 км 8/0 +21.5 +10.8 51 +23 +26 комфорт 1025.9 1014.2
В 1-2
{3}
55 км 4/0 +23.7 +10.3 43 +25 +32 комфорт 1025.8 1014.2
СВ 2-3
{3}
50 км 3/0 +27.0 +9.9 34 +27 +36 жарко 1025.5 1014.0
В 2-4
{5}
55 км ясно +28.5 +8.1 28 +28 +41 жарко 1025.0 1013.6
СВ 4-7
{9}
65 км ясно +29.4 +8.0 26 +29 +38 жарко 1024.4 1013.0
СВ 5-9
{9}
50 км ясно +30.2 +7.8 25 +29 +37 жарко 1023.8 1012.5
В 4-7
{9}
>70 км ясно +30.2 +8.3 25 +29 +38 жарко 1023.2 1011.9
В 3-6
{8}
>70 км ясно +31.4 +8.2 24 +30 +39 жарко 1022.5 1011.2
СВ 3-6
{9}
55 км ясно +31.7 +8.1 23 +31 +37 жарко 1022.0 1010.7
В 2-5
{9}
65 км ясно +31.2 +8.3 24 +30 +34 жарко 1021.4 1010.1
СВ 3-5
{8}
50 км 9/0 +30.6 +7.5 24 +30 +30 жарко 1021.2 1009.9
В 4-5
{9}
55 км ясно +29.7 +8.3 26 +29 +29 жарко 1021.0 1009.7 +16.4 +32.0
СВ 4-5
{6}
55 км ясно +26.0 +9.2 35 +26 +26 жарко 1021.6 1010.1
СВ 4-5
{6}
65 км ясно +24.4 +9.2 38 +25 +25 комфорт 1022.0 1010.5
В 3-4
{6}
65 км 9/0 +23.8 +9.0 39 +25 +25 комфорт 1022.4 1010.8
В 3-4
{5}
55 км 10/0 +21.3 +9.3 46 +23 +23 комфорт 1022.5 1010.8
В 3-3
{4}
55 км 8/0 +21.1 +9.4 47 +22 +22 комфорт 1022.4 1010.7
Ю 1-1
{6}
60 км 10/0 +20.7 +8.5 45 +23 +23 комфорт 1022.4 1010.7
Ю 1-2
{2}
55 км 10/0 +16.8 +9.4 62 +18 +18 тепло 1022.4 1010.6
Ю 1-1
{2}
55 км ясно +14.7 +9.4 71 +15 +15 по сезону 1022.5 1010.6
ЮВ 2-2
{2}
45 км ясно +12.8 +8.9 77 +12 +12 прохладно 1022.7 1010.7
ЮВ 1-2
{3}
55 км ясно +13.3 +9.1 76 +14 +14 по сезону 1022.6 1010.6
ЮВ 2-2
{2}
40 км ясно +12.0 +9.3 84 +11 +11 прохладно 1022.8 1010.8
ЮВ 2-3
{3}
50 км ясно +17.3 +11.0 66 +18 +19 тепло 1022.8 1011.0 +11.4 +29.7
ЮВ 2-3
{3}
55 км ясно +22.7 +9.1 42 +24 +28 комфорт 1022.6 1011.0
ЮВ 2-3
{6}
65 км ясно +25.3 +8.9 35 +26 +33 жарко 1022.4 1010.9
В 3-6
{6}
>70 км ясно +27.3 +9.3 32 +27 +36 жарко 1022.3 1010.9
Ю 3-6
{6}
45 км ясно +28.3 +7.6 27 +28 +38 жарко 1022.1 1010.7
В 5-10
{10}
55 км ясно +29.2 +6.7 24 +28 +36 жарко 1021.7 1010.3
ЮВ 3-7
{10}
50 км ясно +30.0 +6.5 23 +29 +41 жарко 1020.9 1009.6
В 4-8
{9}
65 км ясно +30.6 +6.7 22 +29 +38 жарко 1020.2 1008.9
В 4-7
{9}
55 км ясно +31.4 +6.6 21 +30 +37 жарко 1019.7 1008.4
В 4-7
{9}
50 км 1/0 +31.2 +6.1 21 +30 +34 жарко 1019.1 1007.8
В 2-4
{8}
>70 км ясно +31.5 +6.3 21 +30 +34 жарко 1018.5 1007.3
В 3-6
{7}
60 км 5/0 +31.2 +6.9 22 +30 +31 жарко 1018.2 1006.9
В 3-5
{9}
65 км 4/0 +30.1 +7.1 24 +29 +29 жарко 1018.1 1006.8 +17.6 +32.3
В 3-3
{5}
55 км 5/0 +25.9 +8.4 33 +26 +26 жарко 1018.4 1007.0
В 3-3
{4}
50 км 1/0 +23.8 +8.9 39 +25 +25 комфорт 1019.1 1007.6
В 3-4
{5}
55 км ясно +23.4 +8.7 39 +25 +25 комфорт 1019.3 1007.7
В 3-4
{4}
50 км ясно +22.7 +8.8 41 +24 +24 комфорт 1019.4 1007.8
В 3-3
{4}
55 км ясно +21.8 +8.8 43 +23 +23 комфорт 1019.4 1007.8
Местоположение метеостанции Кёльн (Германия): широта 50.87 долгота 7.17 высота над уровнем моря 91 м.
В архиве по умолчанию представлена погода в Кёльне за последнюю неделю. Архивные данные за месяц целиком и за предыдущие месяцы, начиная с января 2011 года, Вы можете получить, выбрав интересующий диапазон дат из раскрывающегося списка и нажав кнопку "Найти!".
*Определитесь, кто Вы:
Внимание! Время в таблицах - всемирное. Для получения местного времени необходимо прибавить поправку, которая равна 1 ч.
Смотрите также архив погоды в соседних городах и на ближайших метеорологических станциях:
Партнеры нашего сайта:      
Пояснения к столбцам:
  • Ветер - указаны скорость ветра в м/с - средняя за 10 мин, порывы в срок и между сроками (в фигурных скобках) и направление, откуда дует ветер: С - северный,
  • СВ - северо-восточный, В - восточный, ЮВ - юго-восточный, Ю - южный, ЮЗ - юго-западный, З - западный, СЗ - северо-западный.
  • Видимость - горизонтальная дальность видимости в метрах или километрах. При видимости от 1 до 10 км при отсутствии осадков обычно наблюдается дымка, при ухудшении видимости до 1 км и менее - туман. В сухую погоду видимость может ухудшаться дымом, пылью или мглою.
  • Явления - указаны атмосферные явления, наблюдавшиеся в срок или в последний час перед сроком; фигурными скобками обозначены явления, наблюдавшиеся между сроками (за 1-3 часа до срока); квадратными скобками обозначены град или гололедные отложения с указанием их диаметра в мм.
  • Облачность - указаны через наклонную черту общая и нижняя облачность в баллах и высота нижней границы облаков в метрах; квадратными скобками обозначены формы облаков: Ci - перистые, Cs - перисто-слоистые, Cc - перисто-кучевые, Ac - высококучевые, As - высокослоистые, Sc - слоисто-кучевые, Ns - слоисто-дождевые, Cu - кучевые, Cb - кучево-дождевые. Подробнее классификацию облаков см. в Атласе облаков (PDF).
  • T - Температура воздуха - температура, измеренная на высоте 2 м над землей.
  • Td - Температура точки росы - температура, при понижении до которой содержащийся в воздухе водяной пар достигнет насыщения.
  • f - Относительная влажность воздуха - влажноcть воздуха, измеренная на высоте 2 м над землей.
  • Te - Эффективная температура - температура, которую ощущает одетый по сезону человек в тени. Характеристика душности погоды. При расчете учитывается влияние влажности воздуха и скорости ветра на теплоощущения человека.
  • Tes - Эффективная температура на солнце - температура, которую ощущает человек, с поправкой на солнечный нагрев. Характеристика знойности погоды. Зависит от высоты солнца над горизонтом, облачности и скорости ветра. Ночью, в пасмурную погоду, а также при ветре 12 м/с и более поправка равна нулю.
  • P - Атмосферное давление - приведенное к уровню моря атмосферное давление.
  • Po - Атмосферное давление - измеренное на уровне метеостанции атмосферное давление.
  • Tmin - Минимальная температура - минимум температуры воздуха на высоте 2 м над землей.
  • Tmax - Максимальная температура - максимум температуры воздуха на высоте 2 м над землей.
  • R - Количество осадков - Количество выпавших осадков за период времени, мм. При наведении курсора мыши на число - период времени, за который выпало указанное количество осадков.
  • R24 - Количество осадков - Количество выпавших осадков за 24 часа, мм.
  • S - Снежный покров - Высота снежного покрова, см. При наведении курсора мыши на число - состояние снежного покрова и степень покрытия местности в баллах.